Regional Weather Roundup
Issued by NWS

Home | Current Version | Previous Version | Text Only | Print | Product List | Glossary Off
Versions: 1 2 3 4 5 6 7 8 9 10 11 12 13 14 15 16 17 18 19 20 21 22 23 24 25 26 27 28 29 30 31 32 33 34 35 36 37 38 39 40 41 42 43 44 45 46 47 48 49 50

000
ASUS43 KDTX 032310
RWRMI
MICHIGAN HOURLY REGIONAL WEATHER ROUNDUP
NATIONAL WEATHER SERVICE DETROIT/PONTIAC MI
600 PM EST SAT DEC 03 2016

NOTE: "FAIR" INDICATES FEW OR NO CLOUDS BELOW 12,000 FEET WITH NO
SIGNIFICANT WEATHER AND/OR OBSTRUCTION TO VISIBILITY.

MIZ047>049-052>055-059>063-066>070-074>076-081>083-040000-
SOUTHEAST LOWER MICHIGAN

CITY           SKY/WX    TMP DP  RH WIND       PRES   REMARKS
ADRIAN         CLOUDY    36  28  73 CALM      30.31F
ALMA           CLOUDY    37  30  77 SW5       30.29S WCI  33
ANN ARBOR      CLOUDY    36  30  79 CALM      30.29F
BAD AXE        CLOUDY    36  32  85 SW6       30.27S WCI  31
CARO           CLOUDY    36  32  84 SW5       30.28S WCI  32
DETROIT CITY   CLOUDY    37  28  70 W8        30.31R WCI  31
DETROIT        CLOUDY    37  28  70 W5        30.31F WCI  33
FLINT          CLOUDY    37  30  75 SW3       30.29F
GROSSE ILE     CLOUDY    37  29  73 CALM      30.30F
HILLSDALE      CLOUDY    34  27  75 W3        30.28S
HOWELL         CLOUDY    36  29  78 W5        30.28F WCI  32

CITY           SKY/WX    TMP DP  RH WIND       PRES   REMARKS
JACKSON        CLOUDY    35  27  72 W3        30.28F
LAMBERTVILLE   CLOUDY    38  29  70 CALM      30.31F
LANSING        CLOUDY    36  28  73 W5        30.30S WCI  32
LAPEER         NOT AVBL
MASON          CLOUDY    35  30  80 CALM      30.29F
MONROE         CLOUDY    36  32  84 CALM      30.30F
MT. CLEMENS    CLOUDY    39  29  69 W6        30.27R WCI  34
PONTIAC        CLOUDY    36  29  75 W8        30.27S WCI  30
PORT HOPE        N/A     38  33  82 W5        30.25S WCI  34
PORT HURON     CLOUDY    37  30  75 CALM      30.29S
TRI CITIES     CLOUDY    38  31  76 SW7       30.29S WCI  33
MIDLAND        CLOUDY    38  29  70 SW3       30.27S
TROY           CLOUDY    38  28  66 W7        30.31F WCI  33
SAGINAW HB     CLOUDY    37  30  75 SW5       30.28S WCI  34
$$
MIZ043>046-050>051-056>058-064>065-071>073-077>080-040000-
SOUTHWEST LOWER MICHIGAN

CITY           SKY/WX    TMP DP  RH WIND       PRES   REMARKS
BATTLE CREEK   CLOUDY    35  27  72 SW3       30.29F
BENTON HARBOR  CLOUDY    36  27  69 W6        30.30F WCI  31
BIG RAPIDS     CLOUDY    35  28  76 W5        30.27S WCI  31
COLDWATER      CLOUDY    35  26  69 NW3       30.29F
FREMONT        CLOUDY    34  22  61 W5        30.29S WCI  30
HOLLAND        CLOUDY    36  28  73 W6        30.30F WCI  31
GRAND RAPIDS   CLOUDY    36  27  69 SW7       30.29F WCI  30
IONIA          CLOUDY    35  28  78 W5        30.28F WCI  31
KALAMAZOO      CLOUDY    36  26  67 SW3       30.29F
LUDINGTON      CLOUDY    35  29  80 SW6       30.29R WCI  29
MARSHALL       CLOUDY    35  27  73 W6        30.29F WCI  30
MOUNT PLEASANT CLOUDY    37  30  75 W6        30.27F WCI  32
MUSKEGON       CLOUDY    36  26  67 CALM      30.30F
SOUTH HAVEN    CLOUDY    37  28  71 CALM      30.30S
$$
MIZ016>042-040000-
NORTHERN LOWER MICHIGAN

CITY           SKY/WX    TMP DP  RH WIND       PRES   REMARKS
ALPENA         CLOUDY    37  30  75 CALM      30.26S
BEAVER ISLAND  CLOUDY    37  31  79 CALM      30.25F
BELLAIRE       CLOUDY    34  33  96 CALM      30.27S
CADILLAC       CLOUDY    33  31  91 W6        30.24S WCI  28
CHARLEVOIX     CLOUDY    37  33  88 NE6       30.28F WCI  32
FRANKFORT      CLOUDY    36  32  87 W7        30.27S WCI  30
GAYLORD        CLOUDY    34  30  85 CALM      30.23F
GRAYLING       CLOUDY    34  33  94 W3        30.25F
HARBOR SPRINGS CLOUDY    36  31  82 CALM      30.25F
HOUGHTON LAKE  CLOUDY    36  30  79 W6        30.25F WCI  31
MANISTEE       CLOUDY    36  29  75 SW3       30.28S
OSCODA         CLOUDY    38  33  81 CALM      30.25S
PELLSTON       CLOUDY    35  31  85 CALM      30.26S
ROGERS CITY    CLOUDY    38  30  73 CALM      30.27S
TRAVERSE CITY  LGT RAIN  36  33  89 SW3       30.26F
$$
MIZ007>008-015-040000-
EASTERN UPPER MICHIGAN

CITY           SKY/WX    TMP DP  RH WIND       PRES   REMARKS
KINROSS        LGT RAIN  34  32  93 NW3       30.26S
MACKINAC ISLAN CLOUDY    35  30  81 N5        30.25F WCI  31
NEWBERRY       CLOUDY    32  32  99 W5        30.25F WCI  28
S. S. MARIE    PTCLDY    34  28  79 NW5       30.26R WCI  30
MUNISING         N/A     34  32  92 CALM      30.25F
$$
MIZ004>006-011>014-085-040000-
CENTRAL UPPER MICHIGAN

CITY           SKY/WX    TMP DP  RH WIND       PRES   REMARKS
MANISTIQUE     CLOUDY    34  32  93 N5        30.26S WCI  30
ESCANABA       CLOUDY    36  28  73 W3        30.26S
MENOMINEE      CLOUDY    33  25  72 SW6       30.27F WCI  28
SAWYER-GWINN   CLOUDY    32  28  86 CALM      30.24S
$$
MIZ001>003-009>011-084-040000-
WESTERN UPPER MICHIGAN

CITY           SKY/WX    TMP DP  RH WIND       PRES   REMARKS
IRON MOUNTAIN  CLOUDY    31  27  85 CALM      30.21F
HOUGHTON       CLOUDY    32  28  85 S5        30.22S WCI  27
COPPER HARBOR    N/A     33  30  88 CALM      30.25F
IRONWOOD       CLOUDY    29  24  82 VRB6      30.22S WCI  23
$$

ABBREVIATIONS USED IN REMARKS
   TC - TEMPERATURE IN CELSIUS
  WCI - WIND CHILL INDEX
   HX - HEAT INDEX
  VSB - VISIBILITY





USA.gov is the U.S. government's official web portal to all federal, state and local government web resources and services.